Location: *
(37.5724°S, 58.0067°E)
Time: 12:03:25
(UTC+00:00)

USA 229 DEB - Pass Details

Date: 05 December 2021
Orbit: 943 x 1269 km, 63.4° (Epoch: 14 January)

Event Time Altitude Azimuth Distance (km) Brightness Sun altitude
Rises 18:03:30 0° 292° (WNW) 4,203 6.9 -24.1°
Reaches altitude 10° 18:06:49 10° 281° (W) 3,214 6.4 -24.4°
Maximum altitude 18:13:21 29° 223° (SW) 2,059 5.8 -25.0°
Drops below altitude 10° 18:19:37 10° 165° (SSE) 3,058 6.7 -25.6°
Sets 18:22:43 0° 153° (SSE) 3,968 7.2 -25.9°
